Victoria, TX

11:40 AM CDT on October 23, 2019 (GMT -0500)
Victoria Regional

Weather History for KVCT - August, 2019

Change the Weather History Date:

Tuesday, August 6, 2019

  Actual Average Record
Temperature  
Mean Temperature 86 °F 85 °F  
Max Temperature 97 °F 95 °F 103 °F (1913)
Min Temperature 75 °F 74 °F 68 °F (1903)
Degree Days  
Heating Degree Days 0 0  
Month to date heating degree days 0 0  
Since 1 June heating degree days 0 0  
Since 1 July heating degree days 0 0  
Cooling Degree Days 21 20  
Month to date cooling degree days 127 120  
Year to date cooling degree days 2080 1873  
Since 1 June cooling degree days 1312 1214  
Growing Degree Days 35 (Base 50)    
Moisture  
Dew Point 75 °F    
Average Humidity 72    
Maximum Humidity 94    
Minimum Humidity 49    
Precipitation  
Precipitation 0.09 in 0.08 in 1.25 in (1974)
Month to date precipitation 0.10 0.49  
Year to date precipitation 14.74 24.51  
Snow  
Snow 0.00 in 0.00 in 0.00 in (2002)
Month to date snowfall 0.0 0.0  
Since 1 June snowfall 0.0 0.0  
Since 1 July snowfall 0.0 0.0  
Snow Depth 0.00 in    
Sea Level Pressure  
Sea Level Pressure 29.93 in    
Wind  
Wind Speed 8 mph (SE)    
Max Wind Speed 23 mph    
Max Gust Speed 26 mph    
Visibility 9 miles    
Events Rain    
T = Trace of Precipitation, MM = Missing Value Source: NWS Daily Summary

Daily Weather History Graph

Daily Weather History Graph

Search for Another Location

Airport or City:

Astronomy

Aug. 06, 2019 Rise Set
Actual Time 6:51 AM CDT 8:15 PM CDT
Civil Twilight 6:26 AM CDT 8:40 PM CDT
Nautical Twilight 5:55 AM CDT 9:10 PM CDT
Astronomical Twilight 5:24 AM CDT 9:41 PM CDT
Moon 12:48 PM CDT (8/6) No Moon Set
Length of Visible Light 14h 14m
Length of Day
13h 23m
Waxing Crescent, 39% of the Moon is Illuminated
Aug 6
Waxing Crescent
Aug 7
First Quarter
Aug 15
Full
Aug 23
Last Quarter
Aug 30
New

Hourly Weather History & Observations

Time (CDT) Temp. Heat Index Dew Point Humidity Pressure Visibility Wind Dir Wind Speed Gust Speed Precip Events Conditions
12:51 AM 79.0 °F - 75.0 °F 88% 29.92 in 10.0 mi SSE 3.5 mph - N/A   Clear
1:51 AM 78.1 °F - 75.0 °F 90% 29.92 in 10.0 mi South 5.8 mph - N/A   Clear
2:51 AM 78.1 °F - 75.0 °F 90% 29.92 in 10.0 mi South 4.6 mph - N/A   Clear
3:51 AM 77.0 °F - 73.9 °F 90% 29.91 in 9.0 mi Calm Calm - N/A   Clear
4:51 AM 75.9 °F - 73.9 °F 94% 29.92 in 7.0 mi ENE 3.5 mph - N/A   Clear
5:51 AM 75.9 °F - 73.9 °F 94% 29.92 in 6.0 mi ENE 4.6 mph - N/A   Clear
6:51 AM 75.9 °F - 73.9 °F 94% 29.94 in 6.0 mi East 4.6 mph - N/A   Clear
6:57 AM 75.9 °F - 73.9 °F 94% 29.94 in 6.0 mi East 4.6 mph - N/A   Partly Cloudy
7:51 AM 79.0 °F - 75.9 °F 90% 29.95 in 8.0 mi East 3.5 mph - N/A   Partly Cloudy
8:51 AM 84.9 °F 95.3 °F 77.0 °F 77% 29.96 in 10.0 mi SE 3.5 mph - N/A   Clear
9:51 AM 87.1 °F 97.3 °F 75.9 °F 69% 29.97 in 10.0 mi Variable 4.6 mph - N/A   Scattered Clouds
10:23 AM 91.0 °F 102.9 °F 75.9 °F 61% 29.97 in 10.0 mi WSW 6.9 mph - N/A   Mostly Cloudy
10:51 AM 90.0 °F 100.2 °F 75.0 °F 61% 29.96 in 10.0 mi Variable 3.5 mph - N/A   Partly Cloudy
11:51 AM 91.9 °F 99.5 °F 72.0 °F 52% 29.95 in 10.0 mi WSW 6.9 mph - N/A   Mostly Cloudy
12:40 PM 82.9 °F 90.8 °F 75.9 °F 79% 29.96 in 2.0 mi SE 9.2 mph - 0.09 in Rain Rain
12:49 PM 84.2 °F 92.3 °F 75.2 °F 74% 29.95 in 8.0 mi SE 11.5 mph - 0.09 in Rain Light Rain
12:51 PM 84.0 °F 92.6 °F 75.9 °F 76% 29.95 in 10.0 mi SE 10.4 mph - 0.09 in Rain Light Rain
1:51 PM 91.0 °F 100.4 °F 73.9 °F 57% 29.94 in 10.0 mi SE 11.5 mph - 0.00 in   Clear
2:51 PM 95.0 °F 105.2 °F 73.9 °F 50% 29.92 in 10.0 mi SSE 12.7 mph - N/A   Clear
3:51 PM 95.0 °F 104.5 °F 73.0 °F 49% 29.89 in 10.0 mi SSE 13.8 mph - N/A   Clear
4:51 PM 93.0 °F 100.7 °F 72.0 °F 50% 29.88 in 10.0 mi SSE 11.5 mph - N/A   Partly Cloudy
5:51 PM 91.0 °F 99.3 °F 73.0 °F 55% 29.88 in 10.0 mi SE 17.3 mph - N/A   Scattered Clouds
6:51 PM 91.0 °F 100.4 °F 73.9 °F 57% 29.88 in 10.0 mi South 13.8 mph - N/A   Partly Cloudy
7:51 PM 88.0 °F 97.5 °F 75.0 °F 65% 29.89 in 10.0 mi SSE 15.0 mph - N/A   Clear
8:51 PM 84.9 °F 93.3 °F 75.0 °F 72% 29.89 in 10.0 mi SSE 10.4 mph - N/A   Clear
9:51 PM 82.0 °F 89.4 °F 75.9 °F 82% 29.90 in 10.0 mi SE 6.9 mph - N/A   Clear
10:51 PM 81.0 °F 87.9 °F 77.0 °F 88% 29.91 in 10.0 mi SSE 6.9 mph - N/A   Scattered Clouds
11:51 PM 80.1 °F 85.4 °F 75.9 °F 87% 29.93 in 10.0 mi South 3.5 mph - N/A   Clear